20071129,498
20071130,609
20071203,779
20071204,790
20071205,813
20071206,823
20071207,818
20071210,830
20071211,838
20071212,882
20071213,892
20071214,901
20071217,889
20071218,913
20071219,947
20071220,974
20071221,1054
20071225,1109
20071226,1185
20071227,1235
20071228,1290
20080104,1245
20080107,1234
20080108,1254
20080109,1288
20080110,1281
20080111,1262
20080115,1192
20080116,1141
20080117,1164
20080118,1213
20080121,1194
20080122,1118
20080123,1147
20080124,1181
20080125,1217
20080128,1209
20080129,1218
20080130,1211
20080131,1242
20080201,1244
20080204,1279
20080205,1293
20080206,1275
20080207,1280
20080208,1271
20080212,1276
20080213,1256
20080214,1279
20080215,1318
20080218,1355
20080219,1362
20080220,1342
20080221,1381
20080222,1384
20080225,1408
20080226,1380
20080227,1407
20080228,1442
20080229,1434
20080303,1414
20080304,1423
20080305,1419
20080306,1464
20080307,1428
20080310,1347
20080311,1375
20080312,1386
20080313,1382
20080314,1349
20080317,1341
20080318,1338
20080319,1380
20080321,1434
20080324,1456
20080325,1479
20080326,1527
20080327,1498
20080328,1482
20080331,1499
20080401,1509
20080402,1523
20080403,1534
20080404,1529
20080407,1575
20080408,1504
20080409,1472
20080410,1472
20080411,1495
20080414,1493
20080415,1498
20080416,1488
20080417,1490
20080418,1494
20080421,1481
20080422,1489
20080423,1521
20080424,1496
20080425,1503
20080428,1453
20080430,1478
20080501,1469
20080502,1503
20080507,1515
20080508,1515
20080509,1495
20080512,1507
20080513,1533
20080514,1560
20080515,1550
20080516,1502
20080519,1511
20080520,1504
20080521,1500
20080522,1506
20080523,1522
20080526,1512
20080527,1509
20080528,1506
20080529,1510
20080530,1545
20080602,1573
20080603,1561
20080604,1558
20080605,1552
20080606,1547
20080609,1528
20080610,1480
20080611,1485
20080612,1486
20080613,1500
20080616,1505
20080617,1514
20080618,1543
20080619,1505
20080620,1483
20080623,1502
20080624,1488
20080625,1477
20080626,1477
20080627,1446
20080630,1423
20080701,1428
20080702,1424
20080703,1416
20080704,1417
20080707,1435
20080708,1417
20080709,1399
20080710,1396
20080711,1386
20080714,1369
20080715,1332
20080716,1313
20080717,1353
20080718,1348
20080722,1320
20080723,1378
20080724,1403
20080725,1377
20080728,1410
20080729,1382
20080730,1392
20080731,1379
20080801,1331
20080804,1295
20080805,1281
20080806,1318
20080807,1298
20080808,1287
20080811,1336
20080812,1333
20080813,1292
20080814,1287
20080815,1294
20080818,1298
20080819,1310
20080820,1327
20080821,1303
20080822,1278
20080825,1258
20080826,1263
20080827,1275
20080828,1284
20080829,1300
20080901,1298
20080902,1267
20080903,1258
20080904,1235
20080905,1217
20080908,1241
20080909,1215
20080910,1208
20080911,1165
20080912,1173
20080916,1151
20080917,1127
20080918,1119
20080919,1140
20080922,1138
20080924,1134
20080925,1129
20080926,1132
20080929,1127
20080930,1115
20081001,1098
20081002,1074
20081003,1038
20081006,951
20081007,915
20081008,835
20081009,844
20081010,802
20081014,883
20081015,922
20081016,889
20081017,923
20081020,958
20081021,960
20081022,933
20081023,900
20081024,870
20081027,827
20081028,838
20081029,848
20081030,875
20081031,884
20081104,935
20081105,986
20081106,953
20081107,953
20081110,972
20081111,969
20081112,960
20081113,941
20081114,938
20081117,940
20081118,917
20081119,908
20081120,867
20081121,863
20081125,858
20081126,848
20081127,849
20081128,866
20081201,862
20081202,853
20081203,867
20081204,856
20081205,855
20081208,884
20081209,882
20081210,881
20081211,870
20081212,855
20081215,859
20081216,861
20081217,849
20081218,854
20081219,845
20081222,861
20081224,840
20081225,836
20081226,848
20081229,851
20081230,854
20090105,856
20090106,872
20090107,861
20090108,855
20090109,855
20090113,843
20090114,840
20090115,833
20090116,840
20090119,847
20090120,829
20090121,817
20090122,828
20090123,825
20090126,815
20090127,811
20090128,811
20090129,806
20090130,804
20090202,806
20090203,809
20090204,802
20090205,789
20090206,785
20090209,761
20090210,762
20090212,758
20090213,768
20090216,763
20090217,752
20090218,762
20090219,759
20090220,731
20090223,713
20090224,704
20090225,721
20090226,729
20090227,735
20090302,721
20090303,703
20090304,709
20090305,710
20090306,701
20090309,682
20090310,677
20090311,688
20090312,671
20090313,687
20090316,705
20090317,698
20090318,685
20090319,691
20090323,705
20090324,714
20090325,714
20090326,724
20090327,737
20090330,722
20090331,719
20090401,732
20090402,741
20090403,734
20090406,740
20090407,745
20090408,739
20090409,754
20090410,757
20090413,755
20090414,742
20090415,738
20090416,736
20090417,740
20090420,747
20090421,746
20090422,752
20090423,779
20090424,763
20090427,774
20090428,756
20090430,761
20090501,760
20090507,765
20090508,770
20090511,778
20090512,772
20090513,787
20090514,780
20090515,787
20090518,781
20090519,783
20090520,785
20090521,790
20090522,792
20090525,804
20090526,813
20090527,818
20090528,826
20090529,852
20090601,855
20090602,864
20090603,874
20090604,871
20090605,881
20090608,885
20090609,867
20090610,884
20090611,899
20090612,910
20090615,928
20090616,918
20090617,942
20090618,931
20090619,927
20090622,949
20090623,940
20090624,939
20090625,959
20090626,957
20090629,953
20090630,978
20090701,998
20090702,1016
20090703,1029
20090706,1065
20090707,1061
20090708,1070
20090709,1022
20090710,988
20090713,906
20090714,935
20090715,945
20090716,954
20090717,989
20090721,1015
20090722,1034
20090723,1024
20090724,1016
20090727,1011
20090728,993
20090729,1012
20090730,1019
20090731,1013
20090803,1025
20090804,1025
20090805,1023
20090806,1025
20090807,1024
20090810,1025
20090811,1032
20090812,1027
20090813,1029
20090814,1026
20090817,1008
20090818,998
20090819,965
20090820,974
20090821,972
20090824,975
20090825,963
20090826,964
20090827,943
20090828,959
20090831,959
20090901,967
20090902,954
20090903,957
20090904,955
20090907,948
20090908,949
20090909,948
20090910,959
20090911,955
20090914,943
20090915,950
20090916,939
20090917,934
20090918,942
20090924,949
20090925,939
20090928,918
20090929,906
20090930,895
20091001,871
20091002,844
20091005,807
20091006,824
20091007,839
20091008,842
20091009,852
20091013,858
20091014,849
20091015,845
20091016,840
20091019,848
20091020,846
20091021,855
20091022,850
20091023,843
20091026,856
20091027,849
20091028,829
20091029,827
20091030,831
20091102,830
20091104,834
20091105,822
20091106,813
20091109,808
20091110,804
20091111,784
20091112,762
20091113,753
20091116,726
20091117,717
20091118,696
20091119,677
20091120,690
20091124,684
20091125,690
20091126,708
20091127,699
20091130,724
20091201,736
20091202,750
20091203,758
20091204,750
20091207,743
20091208,737
20091209,734
20091210,723
20091211,728
20091214,732
20091215,736
20091216,720
20091217,706
20091218,702
20091221,711
20091222,713
20091224,711
20091225,714
20091228,713
20091229,702
20091230,702
20100104,691
20100105,684
20100106,672
20100107,658
20100108,652
20100112,650
20100113,657
20100114,661
20100115,664
20100118,668
20100119,665
20100120,666
20100121,672
20100122,671
20100125,662
20100126,645
20100127,633
20100128,642
20100129,642
20100201,637
20100202,656
20100203,657
20100204,656
20100205,640
20100208,620
20100209,621
20100210,621
20100212,625
20100215,615
20100216,622
20100217,624
20100218,634
20100219,625
20100222,632
20100223,640
20100224,641
20100225,634
20100226,634
20100301,639
20100302,636
20100303,643
20100304,644
20100305,643
20100308,650
20100309,649
20100310,642
20100311,637
20100312,642
20100315,632
20100316,627
20100317,646
20100318,642
20100319,644
20100323,651
20100324,646
20100325,644
20100326,637
20100329,644
20100330,657
20100331,658
20100401,669
20100402,675
20100405,677
20100406,683
20100407,681
20100408,684
20100409,676
20100412,680
20100413,683
20100414,679
20100415,685
20100416,683
20100419,623
20100420,624
20100421,634
20100422,642
20100423,653
20100426,667
20100427,676
20100428,675
20100430,679
20100506,689
20100507,673
20100510,669
20100511,656
20100512,664
20100513,687
20100514,690
20100517,672
20100518,663
20100519,671
20100520,664
20100521,644
20100524,645
20100525,613
20100526,613
20100527,640
20100528,646
20100531,666
20100601,672
20100602,671
20100603,684
20100604,695
20100607,671
20100608,681
20100609,675
20100610,679
20100611,684
20100614,698
20100615,695
20100616,707
20100617,710
20100618,701
20100621,713
20100622,709
20100623,701
20100624,704
20100625,694
20100628,664
20100629,655
20100630,651
20100701,631
20100702,642
20100705,656
20100706,666
20100707,661
20100708,650
20100709,653
20100712,647
20100713,642
20100714,655
20100715,640
20100716,631
20100720,630
20100721,633
20100722,621
20100723,640
20100726,653
20100727,651
20100728,660
20100729,659
20100730,651
20100802,651
20100803,642
20100804,628
20100805,623
20100806,618
20100809,624
20100810,624
20100811,610
20100812,600
20100813,604
20100816,604
20100817,598
20100818,600
20100819,606
20100820,600
20100823,599
20100824,589
20100825,584
20100826,590
20100827,588
20100830,587
20100831,582
20100901,584
20100902,581
20100903,585
20100906,594
20100907,587
20100908,583
20100909,585
20100910,588
20100913,590
20100914,592
20100915,595
20100916,591
20100917,593
20100921,596
20100922,593
20100924,590
20100927,587
20100928,593
20100929,598
20100930,591
20101001,592
20101004,589
20101005,586
20101006,586
20101007,587
20101008,583
20101012,565
20101013,557
20101014,558
20101015,548
20101018,546
20101019,544
20101020,541
20101021,538
20101022,545
20101025,548
20101026,541
20101027,546
20101028,541
20101029,540
20101101,548
20101102,537
20101104,543
20101105,553
20101108,569
20101109,565
20101110,563
20101111,561
20101112,560
20101115,558
20101116,554
20101117,553
20101118,558
20101119,560
20101122,574
20101124,576
20101125,578
20101126,559
20101129,558
20101130,555
20101201,564
20101202,570
20101203,573
20101206,584
20101207,579
20101208,580
20101209,578
20101210,581
20101213,590
20101214,602
20101215,615
20101216,633
20101217,639
20101220,645
20101221,662
20101222,660
20101224,691
20101227,690
20101228,692
20101229,693
20101230,658
20110104,662
20110105,666
20110106,668
20110107,666
20110111,677
20110112,677
20110113,694
20110114,688
20110117,724
20110118,733
20110119,752
20110120,751
20110121,736
20110124,750
20110125,763
20110126,762
20110127,764
20110128,780
20110131,775
20110201,789
20110202,792
20110203,786
20110204,776
20110207,789
20110208,843
20110209,849
20110210,869
20110214,904
20110215,944
20110216,956
20110217,1018
20110218,1055
20110221,1108
20110222,1148
20110223,1129
20110224,1107
20110225,1060
20110228,1125
20110301,1192
20110302,1248
20110303,1264
20110304,1307
20110307,1294
20110308,1311
20110309,1340
20110310,1325
20110311,1281
20110314,1117
20110315,828
20110316,863
20110317,938
20110318,988
20110322,1109
20110323,1203
20110324,1206
20110325,1204
20110328,1183
20110329,1177
20110330,1205
20110331,1203
20110401,1184
20110404,1200
20110405,1151
20110406,1136
20110407,1121
20110408,1126
20110411,1183
20110412,1157
20110413,1166
20110414,1190
20110415,1204
20110418,1068
20110419,1145
20110420,1167
20110421,1172
20110422,1185
20110425,1193
20110426,1196
20110427,1212
20110428,1227
20110502,1236
20110506,1247
20110509,1250
20110510,1268
20110511,1254
20110512,1251
20110513,1252
20110516,1226
20110517,1230
20110518,1249
20110519,1249
20110520,1265
20110523,1248
20110524,1257
20110525,1250
20110526,1266
20110527,1273
20110530,1288
20110531,1305
20110601,1317
20110602,1309
20110603,1300
20110606,1303
20110607,1320
20110608,1328
20110609,1324
20110610,1329
20110613,1329
20110614,1334
20110615,1335
20110616,1326
20110617,1319
20110620,1298
20110621,1324
20110622,1332
20110623,1320
20110624,1332
20110627,1336
20110628,1343
20110629,1369
20110630,1372
20110701,1370
20110704,1383
20110705,1389
20110706,1391
20110707,1398
20110708,1420
20110711,1408
20110712,1385
20110713,1392
20110714,1402
20110715,1397
20110719,1409
20110720,1422
20110721,1426
20110722,1418
20110725,1414
20110726,1431
20110727,1449
20110728,1467
20110729,1450
20110801,1479
20110802,1472
20110803,1456
20110804,1457
20110805,1429
20110808,1374
20110809,1387
20110810,1427
20110811,1487
20110812,1489
20110815,1539
20110816,1561
20110817,1587
20110818,1585
20110819,1541
20110822,1487
20110823,1441
20110824,1438
20110825,1441
20110826,1476
20110829,1516
20110830,1562
20110831,1577
20110901,1589
20110902,1590
20110905,1568
20110906,1499
20110907,1532
20110908,1534
20110909,1521
20110912,1490
20110913,1507
20110914,1473
20110915,1467
20110916,1493
20110920,1460
20110921,1394
20110922,1367
20110926,1313
20110927,1316
20110928,1324
20110929,1343
20110930,1351
20111003,1350
20111004,1347
20111005,1332
20111006,1340
20111007,1340
20111011,1365
20111012,1357
20111013,1366
20111014,1355
20111017,1365
20111018,1361
20111019,1368
20111020,1356
20111021,1349
20111024,1374
20111025,1366
20111026,1362
20111027,1381
20111028,1421
20111031,1423
20111101,1398
20111102,1386
20111104,1405
20111107,1412
20111108,1390
20111109,1396
20111110,1370
20111111,1374
20111114,1391
20111115,1377
20111116,1365
20111117,1370
20111118,1366
20111121,1343
20111122,1350
20111124,1327
20111125,1325
20111128,1342
20111129,1359
20111130,1362
20111201,1378
20111202,1397
20111205,1415
20111206,1396
20111207,1414
20111208,1409
20111209,1401
20111212,1420
20111213,1419
20111214,1404
20111215,1368
20111216,1374
20111219,1376
20111220,1394
20111221,1407
20111222,1397
20111226,1386
20111227,1387
20111228,1394
20111229,1403
20111230,1412
20120104,1431
20120105,1425
20120106,1436
20120110,1411
20120111,1398
20120112,1383
20120113,1400
20120116,1385
20120117,1386
20120118,1396
20120119,1396
20120120,1406
20120123,1422
20120124,1426
20120125,1453
20120126,1449
20120127,1421
20120130,1411
20120131,1417
20120201,1439
20120202,1445
20120203,1451
20120206,1459
20120207,1470
20120208,1484
20120209,1500
20120210,1507
20120213,1548
20120214,1553
20120215,1570
20120216,1573
20120217,1581
20120220,1604
20120221,1649
20120222,1682
20120223,1746
20120224,1835
20120227,1880
20120228,1943
20120229,2010
20120301,2033
20120302,2061
20120305,2069
20120306,2095
20120307,2080
20120308,2096
20120309,2118
20120312,2126
20120313,2138
20120314,2166
20120315,2194
20120316,2215
20120319,2279
20120321,2272
20120322,2278
20120323,2275
20120326,2247
20120327,2273
20120328,2301
20120329,2352
20120330,2361
20120402,2536
20120403,2597
20120404,2574
20120405,2515
20120406,2503
20120409,2484
20120410,2480
20120411,2536
20120412,2608
20120413,2643
20120416,2620
20120417,2500
20120418,2578
20120419,2520
20120420,2504
20120423,2509
20120424,2520
20120425,2541
20120426,2547
20120427,2545
20120501,2634
20120502,2617
20120507,2502
20120508,2522
20120509,2503
20120510,2509
20120511,2410
20120514,2382
20120515,2346
20120516,2340
20120517,2354
20120518,2313
20120521,2338
20120522,2372
20120523,2342
20120524,2340
20120525,2345
20120528,2346
20120529,2338
20120530,2346
20120531,2361
20120601,2401
20120604,2351
20120605,2372
20120606,2388
20120607,2431
20120608,2408
20120611,2442
20120612,2429
20120613,2423
20120614,2405
20120615,2402
20120618,2445
20120619,2430
20120620,2475
20120621,2498
20120622,2493
20120625,2469
20120626,2463
20120627,2544
20120628,2594
20120629,2651
20120702,2779
20120703,2804
20120704,2798
20120705,2757
20120706,2756
20120709,2741
20120710,2724
20120711,2729
20120712,2698
20120713,2705
20120717,2694
20120718,2687
20120719,2708
20120720,2679
20120723,2606
20120724,2586
20120725,2562
20120726,2612
20120727,2600
20120730,2617
20120731,2677
20120801,2715
20120802,2716
20120803,2687
20120806,2699
20120807,2703
20120808,2695
20120809,2702
20120810,2681
20120813,2693
20120814,2697
20120815,2670
20120816,2687
20120817,2689
20120820,2692
20120821,2708
20120822,2702
20120823,2717
20120824,2701
20120827,2682
20120828,2653
20120829,2645
20120830,2623
20120831,2641
20120903,2736
20120904,2731
20120905,2701
20120906,2719
20120907,2759
20120910,2776
20120911,2772
20120912,2802
20120913,2808
20120914,2830
20120918,2831
20120919,2831
20120920,2792
20120921,2786
20120924,2805
20120925,2849
20120926,2836
20120927,2808
20120928,2804
20121001,2902
20121002,2901
20121003,2880
20121004,2913
20121005,2957
20121009,2939
20121010,2906
20121011,2888
20121012,2867
20121015,2874
20121016,2911
20121017,2935
20121018,2932
20121019,2937
20121022,2963
20121023,3004
20121024,3078
20121025,3044
20121026,2979
20121029,2955
20121030,2917
20121031,2922
20121101,3056
20121102,3113
20121105,3110
20121106,3094
20121107,3078
20121108,3043
20121109,3055
20121112,3003
20121113,2970
20121114,2985
20121115,3019
20121116,3055
20121119,3106
20121120,3110
20121121,3075
20121122,3111
20121126,3088
20121127,3058
20121128,3021
20121129,3146
20121130,3156
20121203,3201
20121204,3184
20121205,3163
20121206,3189
20121207,3150
20121210,3132
20121211,3160
20121212,3096
20121213,3087
20121214,3074
20121217,3001
20121218,2982
20121219,3013
20121220,2977
20121221,2925
20121225,2943
20121226,2983
20121227,2965
20121228,2903
20130104,3220
20130107,3269
20130108,3233
20130109,3213
20130110,3203
20130111,3221
20130115,3288
20130116,3314
20130117,3442
20130118,3511
20130121,3556
20130122,3546
20130123,3689
20130124,3900
20130125,4150
20130128,4486
20130129,4594
20130130,4905
20130131,5247
20130201,5526
20130204,5685
20130205,5727
20130206,5949
20130207,6205
20130208,6281
20130212,6329
20130213,6253
20130214,6356
20130215,6247
20130218,6437
20130219,6563
20130220,6770
20130221,6875
20130222,6926
20130225,7137
20130226,7141
20130227,7301
20130228,7488
20130301,7951
20130304,8147
20130305,8297
20130306,8571
20130307,8467
20130308,8296
20130311,8263
20130312,8054
20130313,8163
20130314,8354
20130315,8428
20130318,8327
20130319,8314
20130321,8452
20130322,8328
20130325,8278
20130326,8133
20130327,8373
20130328,8146
20130329,8126
20130401,7573
20130402,7687
20130403,7764
20130404,7814
20130405,7817
20130408,8187
20130409,8139
20130410,8120
20130411,8129
20130412,8123
20130415,8005
20130416,8137
20130417,7807
20130418,8089
20130419,8192
20130422,8638
20130423,8688
20130424,8891
20130425,8870
20130426,8485
20130430,8747
20130501,8615
20130502,8696
20130507,9011
20130508,9038
20130509,8631
20130510,8741
20130513,8866
20130514,9000
20130515,8545
20130516,8241
20130517,8296
20130520,8480
20130521,8279
20130522,8095
20130523,7365
20130524,7448
20130527,7285
20130528,7422
20130529,7457
20130530,7177
20130531,7168
20130603,6922
20130604,6848
20130605,6686
20130606,6046
20130607,5698
20130610,5999
20130611,5961
20130612,6042
20130613,5814
20130614,5877
20130617,5891
20130618,5890
20130619,5827
20130620,5801
20130621,5736
20130624,5606
20130625,5266
20130626,4779
20130627,4819
20130628,4893
20130701,5009
20130702,5114
20130703,5205
20130704,5278
20130705,5384
20130708,5416
20130709,5405
20130710,5363
20130711,5354
20130712,5381
20130716,5383
20130717,5318
20130718,5265
20130719,5160
20130722,5122
20130723,5109
20130724,5158
20130725,5056
20130726,4981
20130729,4732
20130730,4840
20130731,4839
20130801,4826
20130802,4884
20130805,5063
20130806,5101
20130807,4990
20130808,4911
20130809,4886
20130812,4678
20130813,4752
20130814,4841
20130815,4780
20130816,4775
20130819,4804
20130820,4732
20130821,4649
20130822,4575
20130823,4589
20130826,4552
20130827,4482
20130828,4277
20130829,4263
20130830,4260
20130902,4246
20130903,4333
20130904,4440
20130905,4421
20130906,4358
20130909,4548
20130910,4596
20130911,4646
20130912,4638
20130913,4724
20130917,4757
20130918,4771
20130919,4853
20130920,4854
20130924,4797
20130925,4669
20130926,4733
20130927,4755
20130930,4704
20131001,4660
20131002,4553
20131003,4591
20131004,4571
20131007,4441
20131008,4481
20131009,4605
20131010,4594
20131011,4702
20131015,4717
20131016,4610
20131017,4681
20131018,4754
20131021,4759
20131022,4740
20131023,4556
20131024,4646
20131025,4624
20131028,4563
20131029,4526
20131030,4325
20131031,4205
20131101,4147
20131105,4184
20131106,4222
20131107,4209
20131108,4176
20131111,4151
20131112,4223
20131113,4260
20131114,4275
20131115,4373
20131118,4353
20131119,4266
20131120,4244
20131121,4254
20131122,4256
20131125,4209
20131126,4182
20131127,4091
20131128,4040
20131129,4049
20131202,4120
20131203,4107
20131204,4090
20131205,4083
20131206,4022
20131209,4057
20131210,3943
20131211,3852
20131212,3777
20131213,3754
20131216,3634
20131217,3752
20131218,3581
20131219,3702
20131220,3669
20131224,3526
20131225,3453
20131226,3615
20131227,3677
20131230,3770
20140106,3800
20140107,3792
20140108,3910
20140109,3928
20140110,3981
20140114,3954
20140115,4014
20140116,3976
20140117,4052
20140120,4113
20140121,4113
20140122,4158
20140123,4141
20140124,4115
20140127,3978
20140128,3974
20140129,4080
20140130,3989
20140131,3964
20140203,3823
20140204,3614
20140205,3662
20140206,3789
20140207,3844
20140210,3931
20140212,3977
20140213,3904
20140214,3832
20140217,3822
20140218,3911
20140219,3915
20140220,3838
20140221,3897
20140224,3912
20140225,3969
20140226,3911
20140227,3867
20140228,3836
20140303,3759
20140304,3748
20140305,3796
20140306,3826
20140307,3856
20140310,3832
20140311,3892
20140312,3821
20140313,3786
20140314,3669
20140317,3589
20140318,3670
20140319,3674
20140320,3546
20140324,3631
20140325,3559
20140326,3574
20140327,3593
20140328,3667
20140331,3697
20140401,3696
20140402,3748
20140403,3727
20140404,3717
20140407,3642
20140408,3606
20140409,3606
20140410,3563
20140411,3515
20140414,3499
20140415,3496
20140416,3571
20140417,3378
20140418,3539
20140421,3529
20140422,3476
20140423,3517
20140424,3503
20140425,3519
20140428,3468
20140430,3456
20140501,3519
20140502,3534
20140507,3467
20140508,3446
20140509,3446
20140512,3352
20140513,3390
20140514,3411
20140515,3406
20140516,3346
20140519,3261
20140520,3272
20140521,3286
20140522,3344
20140523,3382
20140526,3460
20140527,3452
20140528,3499
20140529,3539
20140530,3547
20140602,3601
20140603,3640
20140604,3662
20140605,3659
20140606,3739
20140609,3757
20140610,3687
20140611,3757
20140612,3755
20140613,3812
20140616,3823
20140617,3838
20140618,3908
20140619,3905
20140620,3852
20140623,3895
20140624,3939
20140625,3852
20140626,3869
20140627,3811
20140630,3905
20140701,3981
20140702,3928
20140703,3908
20140704,3902
20140707,3904
20140708,3912
20140709,3856
20140710,3799
20140711,3867
20140714,3917
20140715,3865
20140716,3857
20140717,3841
20140718,3801
20140722,3885
20140723,3877
20140724,3903
20140725,3938
20140728,3993
20140729,4007
20140730,3976
20140731,4029
20140801,3988
20140804,4034
20140805,3883
20140806,3839
20140807,3819
20140808,3716
20140811,3818
20140812,3841
20140813,3834
20140814,3854
20140815,3888
20140818,3894
20140819,3933
20140820,3897
20140821,3923
20140822,3935
20140825,4002
20140826,4007
20140827,4048
20140828,4049
20140829,4085
20140901,4143
20140902,4092
20140903,4080
20140904,3992
20140905,4026
20140908,4136
20140909,4089
20140910,4045
20140911,4067
20140912,4062
20140916,4055
20140917,4062
20140918,4059
20140919,4076
20140922,4103
20140924,4070
20140925,4076
20140926,4158
20140929,4180
20140930,4119
20141001,4028
20141002,3928
20141003,4021
20141006,4095
20141007,3967
20141008,3976
20141009,3864
20141010,3780
20141014,3696
20141015,3779
20141016,3700
20141017,3690
20141020,3849
20141021,3774
20141022,3867
20141023,3892
20141024,3892
20141027,3908
20141028,3924
20141029,3914
20141030,3874
20141031,3953
20141104,4051
20141105,4064
20141106,3991
20141107,3994
20141110,3962
20141111,3963
20141112,3918
20141113,3861
20141114,3836
20141117,3751
20141118,3879
20141119,3879
20141120,3864
20141121,3895
20141125,3917
20141126,3928
20141127,3920
20141128,3975
20141201,4000
20141202,4030
20141203,4002
20141204,3988
20141205,4011
20141208,3979
20141209,3910
20141210,3892
20141211,3903
20141212,3937
20141215,3880
20141216,3813
20141217,3803
20141218,3864
20141219,3929
20141222,3917
20141224,3916
20141225,3880
20141226,3997
20141229,3992
20141230,3939
20150105,3900
20150106,3797
20150107,3782
20150108,3824
20150109,3813
20150113,3820
20150114,3784
20150115,3848
20150116,3794
20150119,3817
20150120,3858
20150121,3840
20150122,3828
20150123,3847
20150126,3877
20150127,3881
20150128,3907
20150129,3860
20150130,3886